Wetterdaten: Freitag, 11.05.2018
Datum Zeit Temp. A. Aussen2m Boden Feuchte A. Feuchte 2 Luftdruck Regen Wind Richtung Richtung Sonnenschein
11.05.2018 00:00 11,0 C 11,2 C 10,8 C 78 % 80 % 1017,8 hPa 0,0 l/m 9,7 km/h (2 Bft) W-SW 255 0 min
11.05.2018 00:05 10,9 C 11,2 C 10,8 C 79 % 80 % 1017,8 hPa 0,0 l/m 6,7 km/h (2 Bft) NW 305 0 min
11.05.2018 00:10 10,9 C 11,1 C 10,8 C 79 % 81 % 1017,8 hPa 0,0 l/m 4,8 km/h (1 Bft) N 5 0 min
11.05.2018 00:15 10,8 C 10,9 C 10,8 C 79 % 81 % 1017,8 hPa 0,0 l/m 6,7 km/h (2 Bft) W 280 0 min
11.05.2018 00:20 10,7 C 10,9 C 10,8 C 80 % 81 % 1017,8 hPa 0,0 l/m 7,3 km/h (2 Bft) W-NW 285 0 min
11.05.2018 00:25 10,7 C 10,8 C 10,8 C 80 % 81 % 1017,8 hPa 0,0 l/m 6,7 km/h (2 Bft) W-NW 290 0 min
11.05.2018 00:30 10,6 C 10,8 C 10,8 C 80 % 82 % 1017,8 hPa 0,0 l/m 6,7 km/h (2 Bft) NW 325 0 min
11.05.2018 00:35 10,5 C 10,8 C 10,8 C 81 % 82 % 1017,8 hPa 0,0 l/m 6,1 km/h (2 Bft) W-NW 290 0 min
11.05.2018 00:40 10,5 C 10,6 C 10,8 C 81 % 83 % 1017,8 hPa 0,0 l/m 4,8 km/h (1 Bft) NW 310 0 min
11.05.2018 00:45 10,4 C 10,6 C 10,8 C 82 % 83 % 1017,8 hPa 0,0 l/m 6,7 km/h (2 Bft) NW 325 0 min
11.05.2018 00:50 10,4 C 10,5 C 10,8 C 82 % 83 % 1017,8 hPa 0,0 l/m 5,4 km/h (2 Bft) W 275 0 min
11.05.2018 00:55 10,3 C 10,5 C 10,8 C 82 % 83 % 1017,8 hPa 0,0 l/m 6,1 km/h (2 Bft) W-NW 300 0 min
11.05.2018 01:00 10,4 C 10,5 C 10,8 C 82 % 84 % 1017,8 hPa 0,0 l/m 6,1 km/h (2 Bft) W-NW 295 0 min
11.05.2018 01:05 10,3 C 10,5 C 10,8 C 82 % 84 % 1018,8 hPa 0,0 l/m 4,2 km/h (1 Bft) N-NW 340 0 min
11.05.2018 01:10 10,3 C 10,4 C 10,8 C 83 % 83 % 1018,8 hPa 0,0 l/m 3,0 km/h (1 Bft) W 280 0 min
11.05.2018 01:15 10,2 C 10,3 C 10,8 C 83 % 83 % 1018,8 hPa 0,0 l/m 2,4 km/h (1 Bft) NW 305 0 min
11.05.2018 01:20 10,1 C 10,2 C 10,8 C 83 % 82 % 1017,8 hPa 0,0 l/m 0,0 km/h (0 Bft) W 270 0 min
11.05.2018 01:25 10,1 C 10,2 C 10,8 C 83 % 83 % 1017,8 hPa 0,0 l/m 0,0 km/h (0 Bft) W-NW 285 0 min
11.05.2018 01:30 9,9 C 10,1 C 10,8 C 83 % 83 % 1017,8 hPa 0,0 l/m 0,0 km/h (0 Bft) SW 225 0 min
11.05.2018 01:35 9,9 C 10,0 C 10,8 C 84 % 83 % 1018,8 hPa 0,0 l/m 1,2 km/h (1 Bft) N-NW 330 0 min
11.05.2018 01:40 10,0 C 10,0 C 10,8 C 84 % 84 % 1018,8 hPa 0,0 l/m 1,2 km/h (1 Bft) W-NW 285 0 min
11.05.2018 01:45 10,0 C 10,0 C 10,8 C 84 % 84 % 1018,8 hPa 0,0 l/m 0,6 km/h (0 Bft) N-NW 345 0 min
11.05.2018 01:50 9,9 C 10,0 C 10,8 C 84 % 84 % 1017,8 hPa 0,0 l/m 1,8 km/h (1 Bft) W 265 0 min
11.05.2018 01:55 9,7 C 9,8 C 10,8 C 84 % 83 % 1017,8 hPa 0,0 l/m 0,0 km/h (0 Bft) W 265 0 min
11.05.2018 02:00 9,7 C 9,7 C 10,8 C 85 % 83 % 1017,8 hPa 0,0 l/m 0,0 km/h (0 Bft) W 275 0 min
11.05.2018 02:05 9,6 C 9,7 C 10,8 C 85 % 83 % 1017,8 hPa 0,0 l/m 0,0 km/h (0 Bft) W 275 0 min
11.05.2018 02:10 9,5 C 9,6 C 10,8 C 85 % 83 % 1017,8 hPa 0,0 l/m 0,6 km/h (0 Bft) W-SW 255 0 min
11.05.2018 02:15 9,4 C 9,4 C 10,8 C 85 % 84 % 1017,8 hPa 0,0 l/m 0,6 km/h (0 Bft) W-NW 290 0 min
11.05.2018 02:20 9,5 C 9,5 C 10,8 C 85 % 85 % 1017,8 hPa 0,0 l/m 2,4 km/h (1 Bft) NW 305 0 min
11.05.2018 02:25 9,4 C 9,5 C 10,8 C 85 % 86 % 1017,8 hPa 0,0 l/m 3,6 km/h (1 Bft) NW 315 0 min
11.05.2018 02:30 9,4 C 9,5 C 10,8 C 85 % 86 % 1017,8 hPa 0,0 l/m 3,6 km/h (1 Bft) NW 310 0 min
11.05.2018 02:35 9,3 C 9,4 C 10,8 C 85 % 85 % 1018,8 hPa 0,0 l/m 0,0 km/h (0 Bft) W 280 0 min
11.05.2018 02:40 9,2 C 9,3 C 10,8 C 85 % 85 % 1018,8 hPa 0,0 l/m 0,0 km/h (0 Bft) W 270 0 min
11.05.2018 02:45 9,2 C 9,2 C 10,8 C 85 % 84 % 1018,8 hPa 0,0 l/m 0,6 km/h (0 Bft) W-NW 300 0 min
11.05.2018 02:50 9,0 C 9,1 C 10,8 C 86 % 85 % 1017,8 hPa 0,0 l/m 0,0 km/h (0 Bft) W-SW 240 0 min
11.05.2018 02:55 9,0 C 8,9 C 10,8 C 86 % 85 % 1017,8 hPa 0,0 l/m 0,0 km/h (0 Bft) NW 325 0 min
11.05.2018 03:00 8,9 C 8,9 C 10,8 C 86 % 85 % 1017,8 hPa 0,0 l/m 0,0 km/h (0 Bft) W 275 0 min
11.05.2018 03:05 8,9 C 8,9 C 10,8 C 86 % 86 % 1018,8 hPa 0,0 l/m 3,0 km/h (1 Bft) W-NW 295 0 min
11.05.2018 03:10 8,8 C 8,9 C 10,8 C 87 % 87 % 1018,8 hPa 0,0 l/m 2,4 km/h (1 Bft) NW 310 0 min
11.05.2018 03:15 8,9 C 8,9 C 10,8 C 87 % 87 % 1018,8 hPa 0,0 l/m 1,2 km/h (1 Bft) NW 305 0 min
11.05.2018 03:20 8,9 C 8,9 C 10,8 C 87 % 87 % 1017,8 hPa 0,0 l/m 1,2 km/h (1 Bft) W-NW 285 0 min
11.05.2018 03:25 8,8 C 8,9 C 10,8 C 87 % 87 % 1017,8 hPa 0,0 l/m 2,4 km/h (1 Bft) NW 325 0 min
11.05.2018 03:30 8,8 C 8,8 C 10,8 C 87 % 86 % 1017,8 hPa 0,0 l/m 0,0 km/h (0 Bft) SW 235 0 min
11.05.2018 03:35 8,7 C 8,7 C 10,8 C 87 % 86 % 1018,8 hPa 0,0 l/m 1,2 km/h (1 Bft) W-NW 285 0 min
11.05.2018 03:40 8,7 C 8,7 C 10,8 C 87 % 87 % 1018,8 hPa 0,0 l/m 1,2 km/h (1 Bft) W-NW 300 0 min
11.05.2018 03:45 8,6 C 8,8 C 10,8 C 87 % 88 % 1018,8 hPa 0,0 l/m 1,2 km/h (1 Bft) NW 315 0 min
11.05.2018 03:50 8,5 C 8,7 C 10,8 C 87 % 87 % 1017,8 hPa 0,0 l/m 0,0 km/h (0 Bft) W-NW 290 0 min
11.05.2018 03:55 8,5 C 8,7 C 10,8 C 87 % 87 % 1017,8 hPa 0,0 l/m 0,0 km/h (0 Bft) W-NW 290 0 min
11.05.2018 04:00 8,5 C 8,6 C 10,8 C 88 % 87 % 1017,8 hPa 0,0 l/m 0,0 km/h (0 Bft) N 5 0 min
11.05.2018 04:05 8,4 C 8,4 C 10,8 C 88 % 87 % 1017,8 hPa 0,0 l/m 0,0 km/h (0 Bft) W 260 0 min
11.05.2018 04:10 8,4 C 8,4 C 10,8 C 88 % 87 % 1017,8 hPa 0,0 l/m 0,0 km/h (0 Bft) W 265 0 min
11.05.2018 04:15 8,3 C 8,3 C 10,8 C 88 % 87 % 1017,8 hPa 0,0 l/m 0,0 km/h (0 Bft) SW 215 0 min
11.05.2018 04:20 8,2 C 8,3 C 10,8 C 88 % 87 % 1018,8 hPa 0,0 l/m 0,0 km/h (0 Bft) W 275 0 min
11.05.2018 04:25 8,2 C 8,3 C 10,8 C 89 % 87 % 1018,8 hPa 0,0 l/m 0,0 km/h (0 Bft) W 280 0 min
11.05.2018 04:30 8,1 C 8,3 C 10,8 C 89 % 87 % 1018,8 hPa 0,0 l/m 0,0 km/h (0 Bft) W 265 0 min
11.05.2018 04:35 8,0 C 8,2 C 10,8 C 89 % 87 % 1018,8 hPa 0,0 l/m 0,0 km/h (0 Bft) W-NW 295 0 min
11.05.2018 04:40 8,0 C 8,1 C 10,8 C 89 % 87 % 1018,8 hPa 0,0 l/m 0,0 km/h (0 Bft) W-NW 295 0 min
11.05.2018 04:45 8,0 C 8,1 C 10,8 C 89 % 87 % 1018,8 hPa 0,0 l/m 0,0 km/h (0 Bft) NW 315 0 min
11.05.2018 04:50 8,1 C 8,2 C 10,8 C 89 % 88 % 1017,8 hPa 0,0 l/m 0,0 km/h (0 Bft) NW 320 0 min
11.05.2018 04:55 8,2 C 8,2 C 10,8 C 90 % 88 % 1017,8 hPa 0,0 l/m 0,0 km/h (0 Bft) W 280 0 min
11.05.2018 05:00 8,1 C 8,2 C 10,8 C 90 % 88 % 1017,8 hPa 0,0 l/m 0,0 km/h (0 Bft) N 10 0 min
11.05.2018 05:05 8,1 C 8,1 C 10,8 C 90 % 87 % 1018,8 hPa 0,0 l/m 0,0 km/h (0 Bft) W-NW 300 0 min
11.05.2018 05:10 8,1 C 8,0 C 10,8 C 90 % 87 % 1018,8 hPa 0,0 l/m 0,0 km/h (0 Bft) N-NW 345 0 min
11.05.2018 05:15 8,0 C 8,0 C 10,8 C 90 % 88 % 1018,8 hPa 0,0 l/m 0,0 km/h (0 Bft) NW 315 0 min
11.05.2018 05:20 8,1 C 8,0 C 10,8 C 90 % 89 % 1018,8 hPa 0,0 l/m 0,0 km/h (0 Bft) W-NW 295 0 min
11.05.2018 05:25 8,1 C 8,1 C 10,8 C 90 % 89 % 1018,8 hPa 0,0 l/m 1,2 km/h (1 Bft) W 280 0 min
11.05.2018 05:30 8,1 C 8,0 C 10,8 C 90 % 89 % 1018,8 hPa 0,0 l/m 0,0 km/h (0 Bft) W-NW 285 0 min
11.05.2018 05:35 8,1 C 8,0 C 10,8 C 90 % 89 % 1018,8 hPa 0,0 l/m 1,2 km/h (1 Bft) W-NW 300 0 min
11.05.2018 05:40 8,0 C 8,0 C 10,8 C 90 % 89 % 1018,8 hPa 0,0 l/m 0,6 km/h (0 Bft) W-NW 300 0 min
11.05.2018 05:45 8,0 C 8,1 C 10,8 C 90 % 90 % 1018,8 hPa 0,0 l/m 0,0 km/h (0 Bft) NW 325 0 min
11.05.2018 05:50 7,9 C 8,1 C 10,8 C 90 % 90 % 1018,8 hPa 0,0 l/m 0,0 km/h (0 Bft) W 280 0 min
11.05.2018 05:55 7,9 C 8,1 C 10,8 C 90 % 90 % 1018,8 hPa 0,0 l/m 1,2 km/h (1 Bft) NW 320 0 min
11.05.2018 06:00 7,8 C 8,0 C 10,8 C 90 % 89 % 1018,8 hPa 0,0 l/m 0,6 km/h (0 Bft) N-NW 340 0 min
11.05.2018 06:05 7,8 C 8,0 C 10,8 C 90 % 89 % 1017,8 hPa 0,0 l/m 0,0 km/h (0 Bft) N 10 0 min
11.05.2018 06:10 7,8 C 7,9 C 10,8 C 90 % 89 % 1017,8 hPa 0,0 l/m 0,0 km/h (0 Bft) W 280 0 min
11.05.2018 06:15 7,9 C 8,0 C 10,8 C 90 % 90 % 1017,8 hPa 0,0 l/m 3,0 km/h (1 Bft) N-NO 25 0 min
11.05.2018 06:20 8,0 C 8,1 C 10,8 C 90 % 90 % 1017,8 hPa 0,0 l/m 4,2 km/h (1 Bft) O 80 0 min
11.05.2018 06:25 8,1 C 8,2 C 10,8 C 90 % 90 % 1017,8 hPa 0,0 l/m 3,6 km/h (1 Bft) NO 45 0 min
11.05.2018 06:30 8,1 C 8,2 C 10,8 C 90 % 90 % 1017,8 hPa 0,0 l/m 3,0 km/h (1 Bft) N-NO 15 0 min
11.05.2018 06:35 8,1 C 8,3 C 10,8 C 90 % 90 % 1018,8 hPa 0,0 l/m 5,4 km/h (2 Bft) N 0 0 min
11.05.2018 06:40 8,2 C 8,3 C 10,8 C 90 % 90 % 1018,8 hPa 0,0 l/m 4,2 km/h (1 Bft) N-NO 15 0 min
11.05.2018 06:45 8,2 C 8,4 C 10,8 C 90 % 90 % 1018,8 hPa 0,0 l/m 3,0 km/h (1 Bft) N 0 0 min
11.05.2018 06:50 8,3 C 8,4 C 10,8 C 90 % 90 % 1018,8 hPa 0,0 l/m 0,0 km/h (0 Bft) N-NO 20 0 min
11.05.2018 06:55 8,3 C 8,4 C 10,8 C 90 % 89 % 1018,8 hPa 0,0 l/m 1,2 km/h (1 Bft) N 5 0 min
11.05.2018 07:00 8,4 C 8,4 C 10,8 C 89 % 89 % 1018,8 hPa 0,0 l/m 1,8 km/h (1 Bft) N-NO 15 0 min
11.05.2018 07:05 8,5 C 8,4 C 10,8 C 89 % 89 % 1018,8 hPa 0,0 l/m 0,0 km/h (0 Bft) SO 125 0 min
11.05.2018 07:10 8,6 C 8,5 C 10,8 C 89 % 90 % 1018,8 hPa 0,0 l/m 1,2 km/h (1 Bft) N-NO 15 0 min
11.05.2018 07:15 8,7 C 8,6 C 10,8 C 89 % 90 % 1018,8 hPa 0,0 l/m 0,0 km/h (0 Bft) NW 325 0 min
11.05.2018 07:20 8,9 C 8,8 C 10,8 C 89 % 90 % 1018,8 hPa 0,0 l/m 2,4 km/h (1 Bft) N 10 0 min
11.05.2018 07:25 9,0 C 8,8 C 10,8 C 89 % 90 % 1018,8 hPa 0,0 l/m 0,6 km/h (0 Bft) N-NO 20 0 min
11.05.2018 07:30 9,3 C 8,9 C 10,8 C 88 % 90 % 1018,8 hPa 0,0 l/m 0,0 km/h (0 Bft) SW 230 0 min
11.05.2018 07:35 9,4 C 9,1 C 10,8 C 88 % 90 % 1018,8 hPa 0,0 l/m 1,8 km/h (1 Bft) N-NO 20 0 min
11.05.2018 07:40 9,6 C 9,2 C 10,8 C 87 % 90 % 1018,8 hPa 0,0 l/m 1,8 km/h (1 Bft) O-SO 120 5 min
11.05.2018 07:45 9,7 C 9,5 C 10,8 C 87 % 90 % 1018,8 hPa 0,0 l/m 0,0 km/h (0 Bft) W 275 2 min
11.05.2018 07:50 10,0 C 9,6 C 10,8 C 87 % 89 % 1018,8 hPa 0,0 l/m 0,0 km/h (0 Bft) W-SW 245 5 min
11.05.2018 07:55 10,3 C 9,7 C 10,8 C 86 % 89 % 1018,8 hPa 0,0 l/m 0,0 km/h (0 Bft) W-NW 300 6 min
11.05.2018 08:00 10,2 C 9,7 C 10,8 C 86 % 89 % 1018,8 hPa 0,0 l/m 0,0 km/h (0 Bft) NW 305 3 min
11.05.2018 08:05 10,2 C 9,8 C 10,8 C 86 % 89 % 1018,8 hPa 0,0 l/m 0,0 km/h (0 Bft) SW 230 5 min
11.05.2018 08:10 10,2 C 9,9 C 10,8 C 86 % 89 % 1018,8 hPa 0,0 l/m 1,2 km/h (1 Bft) W-SW 250 4 min
11.05.2018 08:15 10,3 C 9,9 C 10,8 C 86 % 89 % 1018,8 hPa 0,0 l/m 3,6 km/h (1 Bft) W-NW 290 5 min
11.05.2018 08:20 10,7 C 10,0 C 10,8 C 86 % 89 % 1018,8 hPa 0,0 l/m 2,4 km/h (1 Bft) W 275 4 min
11.05.2018 08:25 10,8 C 10,2 C 10,8 C 86 % 90 % 1018,8 hPa 0,0 l/m 1,8 km/h (1 Bft) N-NW 340 2 min
11.05.2018 08:30 11,1 C 10,5 C 10,8 C 85 % 90 % 1018,8 hPa 0,0 l/m 3,0 km/h (1 Bft) N-NO 30 3 min
11.05.2018 08:35 11,6 C 10,9 C 10,8 C 82 % 88 % 1018,8 hPa 0,0 l/m 6,1 km/h (2 Bft) S-SO 150 4 min
11.05.2018 08:40 12,0 C 11,1 C 10,8 C 80 % 87 % 1018,8 hPa 0,0 l/m 5,4 km/h (2 Bft) SO 145 6 min
11.05.2018 08:45 12,3 C 11,5 C 10,8 C 78 % 85 % 1018,8 hPa 0,0 l/m 8,5 km/h (2 Bft) O-SO 115 4 min
11.05.2018 08:50 12,6 C 11,8 C 10,8 C 76 % 82 % 1019,8 hPa 0,0 l/m 10,3 km/h (2 Bft) O-NO 70 6 min
11.05.2018 08:55 12,8 C 12,0 C 10,8 C 76 % 82 % 1019,8 hPa 0,0 l/m 7,3 km/h (2 Bft) O-SO 105 5 min
11.05.2018 09:00 13,1 C 12,2 C 10,8 C 75 % 80 % 1019,8 hPa 0,0 l/m 9,7 km/h (2 Bft) SO 140 5 min
11.05.2018 09:05 13,3 C 12,4 C 10,8 C 75 % 80 % 1017,8 hPa 0,0 l/m 15,1 km/h (3 Bft) O-NO 75 4 min
11.05.2018 09:10 13,3 C 12,6 C 10,8 C 74 % 79 % 1017,8 hPa 0,0 l/m 12,7 km/h (3 Bft) O 80 5 min
11.05.2018 09:15 13,2 C 12,6 C 10,8 C 74 % 79 % 1017,8 hPa 0,0 l/m 8,5 km/h (2 Bft) O 90 6 min
11.05.2018 09:20 13,5 C 12,8 C 10,8 C 73 % 79 % 1018,8 hPa 0,0 l/m 9,7 km/h (2 Bft) O-NO 60 4 min
11.05.2018 09:25 13,7 C 13,1 C 10,8 C 73 % 79 % 1018,8 hPa 0,0 l/m 8,5 km/h (2 Bft) NW 305 5 min
11.05.2018 09:30 14,1 C 13,2 C 10,8 C 71 % 78 % 1018,8 hPa 0,0 l/m 6,7 km/h (2 Bft) NO 35 5 min
11.05.2018 09:35 14,3 C 13,4 C 10,8 C 70 % 77 % 1017,8 hPa 0,0 l/m 10,3 km/h (2 Bft) O-SO 115 6 min
11.05.2018 09:40 13,8 C 13,4 C 10,8 C 70 % 77 % 1017,8 hPa 0,0 l/m 13,3 km/h (3 Bft) N-NO 30 4 min
11.05.2018 09:45 14,0 C 13,5 C 10,8 C 70 % 77 % 1017,8 hPa 0,0 l/m 8,5 km/h (2 Bft) SO 130 4 min
11.05.2018 09:50 14,2 C 13,6 C 10,8 C 69 % 75 % 1017,8 hPa 0,0 l/m 9,1 km/h (2 Bft) S 170 4 min
11.05.2018 09:55 14,1 C 13,4 C 10,8 C 70 % 75 % 1017,8 hPa 0,0 l/m 6,1 km/h (2 Bft) S-SO 160 4 min
11.05.2018 10:00 14,2 C 13,4 C 10,8 C 69 % 74 % 1017,8 hPa 0,0 l/m 2,4 km/h (1 Bft) N-NW 340 6 min
11.05.2018 10:05 14,2 C 13,5 C 10,8 C 68 % 74 % 1018,8 hPa 0,0 l/m 6,7 km/h (2 Bft) SO 135 5 min
11.05.2018 10:10 14,3 C 13,8 C 10,8 C 68 % 74 % 1018,8 hPa 0,0 l/m 14,5 km/h (3 Bft) S-SO 150 4 min
11.05.2018 10:15 14,2 C 14,0 C 10,8 C 68 % 74 % 1018,8 hPa 0,0 l/m 9,7 km/h (2 Bft) S-SO 155 4 min
11.05.2018 10:20 14,5 C 14,2 C 10,8 C 67 % 72 % 1017,7 hPa 0,0 l/m 12,7 km/h (3 Bft) SW 215 4 min
11.05.2018 10:25 14,4 C 14,1 C 10,8 C 67 % 71 % 1017,7 hPa 0,0 l/m 12,1 km/h (2 Bft) O-SO 110 5 min
11.05.2018 10:30 14,9 C 14,3 C 10,8 C 66 % 71 % 1017,7 hPa 0,0 l/m 7,9 km/h (2 Bft) N-NO 30 5 min
11.05.2018 10:35 14,6 C 14,2 C 10,8 C 66 % 72 % 1017,7 hPa 0,0 l/m 14,5 km/h (3 Bft) O-SO 110 2 min
11.05.2018 10:40 14,8 C 14,3 C 10,8 C 66 % 71 % 1017,7 hPa 0,0 l/m 10,3 km/h (2 Bft) S 175 5 min
11.05.2018 10:45 15,1 C 14,6 C 10,8 C 65 % 72 % 1017,7 hPa 0,0 l/m 7,3 km/h (2 Bft) W-SW 240 5 min
11.05.2018 10:50 14,9 C 14,9 C 10,8 C 65 % 71 % 1017,7 hPa 0,0 l/m 12,1 km/h (2 Bft) S-SW 205 6 min
11.05.2018 10:55 15,0 C 15,0 C 10,8 C 65 % 70 % 1017,7 hPa 0,0 l/m 8,5 km/h (2 Bft) SO 140 2 min
11.05.2018 11:00 15,6 C 15,2 C 10,8 C 64 % 69 % 1017,7 hPa 0,0 l/m 8,5 km/h (2 Bft) SO 135 7 min
11.05.2018 11:05 16,0 C 15,4 C 10,8 C 62 % 69 % 1018,7 hPa 0,0 l/m 8,5 km/h (2 Bft) S-SW 205 6 min
11.05.2018 11:10 15,8 C 15,4 C 10,8 C 62 % 68 % 1018,7 hPa 0,0 l/m 11,5 km/h (2 Bft) S-SO 155 4 min
11.05.2018 11:15 15,5 C 15,5 C 10,8 C 63 % 68 % 1018,7 hPa 0,0 l/m 9,7 km/h (2 Bft) S-SO 150 3 min
11.05.2018 11:20 15,5 C 15,4 C 10,8 C 64 % 68 % 1017,7 hPa 0,0 l/m 2,4 km/h (1 Bft) S-SW 210 7 min
11.05.2018 11:25 15,6 C 15,5 C 10,8 C 64 % 69 % 1017,7 hPa 0,0 l/m 10,3 km/h (2 Bft) S 190 4 min
11.05.2018 11:30 16,4 C 16,0 C 10,8 C 61 % 69 % 1017,7 hPa 0,0 l/m 7,9 km/h (2 Bft) S 170 5 min
11.05.2018 11:35 16,3 C 16,0 C 10,8 C 60 % 65 % 1017,7 hPa 0,0 l/m 8,5 km/h (2 Bft) O-SO 110 4 min
11.05.2018 11:40 16,8 C 16,0 C 10,8 C 60 % 66 % 1017,7 hPa 0,0 l/m 12,7 km/h (3 Bft) O-SO 120 6 min
11.05.2018 11:45 17,0 C 16,2 C 10,8 C 59 % 66 % 1017,7 hPa 0,0 l/m 9,7 km/h (2 Bft) SO 125 5 min
11.05.2018 11:50 17,2 C 16,2 C 10,8 C 59 % 65 % 1017,7 hPa 0,0 l/m 6,1 km/h (2 Bft) SO 135 5 min
11.05.2018 11:55 17,7 C 16,3 C 10,8 C 58 % 66 % 1017,7 hPa 0,0 l/m 10,3 km/h (2 Bft) O-SO 105 5 min
11.05.2018 12:00 16,9 C 16,7 C 10,8 C 59 % 64 % 1017,7 hPa 0,0 l/m 16,3 km/h (3 Bft) SO 145 5 min
11.05.2018 12:05 17,2 C 16,8 C 10,8 C 58 % 63 % 1017,7 hPa 0,0 l/m 10,9 km/h (2 Bft) SO 140 5 min
11.05.2018 12:10 17,4 C 16,6 C 10,8 C 58 % 65 % 1017,7 hPa 0,0 l/m 7,9 km/h (2 Bft) W 270 6 min
11.05.2018 12:15 17,8 C 16,9 C 10,8 C 57 % 65 % 1017,7 hPa 0,0 l/m 13,9 km/h (3 Bft) S 175 5 min
11.05.2018 12:20 17,2 C 17,4 C 10,8 C 57 % 64 % 1016,7 hPa 0,0 l/m 9,7 km/h (2 Bft) SW 215 4 min
11.05.2018 12:25 16,9 C 17,4 C 10,8 C 59 % 63 % 1016,7 hPa 0,0 l/m 13,3 km/h (3 Bft) SW 225 6 min
11.05.2018 12:30 17,5 C 17,6 C 10,8 C 58 % 63 % 1016,7 hPa 0,0 l/m 9,7 km/h (2 Bft) SO 145 4 min
11.05.2018 12:35 18,3 C 17,8 C 10,8 C 55 % 62 % 1016,7 hPa 0,0 l/m 11,5 km/h (2 Bft) S 175 6 min
11.05.2018 12:40 18,5 C 18,1 C 10,8 C 55 % 61 % 1016,7 hPa 0,0 l/m 16,9 km/h (3 Bft) S-SO 150 5 min
11.05.2018 12:45 17,9 C 18,2 C 10,8 C 55 % 60 % 1016,7 hPa 0,0 l/m 12,7 km/h (3 Bft) W 265 4 min
11.05.2018 12:50 17,8 C 18,2 C 10,8 C 56 % 61 % 1017,7 hPa 0,0 l/m 12,1 km/h (2 Bft) W-SW 240 5 min
11.05.2018 12:55 18,1 C 18,5 C 10,8 C 53 % 60 % 1017,7 hPa 0,0 l/m 10,9 km/h (2 Bft) O-SO 110 6 min
11.05.2018 13:00 18,8 C 18,5 C 10,8 C 54 % 61 % 1017,7 hPa 0,0 l/m 8,5 km/h (2 Bft) S-SW 200 4 min
11.05.2018 13:05 18,4 C 18,6 C 10,8 C 54 % 59 % 1016,7 hPa 0,0 l/m 11,5 km/h (2 Bft) S-SW 210 6 min
11.05.2018 13:10 19,0 C 18,8 C 10,8 C 53 % 59 % 1016,7 hPa 0,0 l/m 9,1 km/h (2 Bft) N-NO 20 5 min
11.05.2018 13:15 19,2 C 18,9 C 10,8 C 50 % 57 % 1016,7 hPa 0,0 l/m 10,9 km/h (2 Bft) S-SW 195 5 min
11.05.2018 13:20 19,5 C 19,0 C 10,8 C 50 % 57 % 1016,7 hPa 0,0 l/m 12,7 km/h (3 Bft) SO 130 5 min
11.05.2018 13:25 19,2 C 19,1 C 10,8 C 50 % 55 % 1016,7 hPa 0,0 l/m 12,7 km/h (3 Bft) W-NW 285 5 min
11.05.2018 13:30 19,7 C 19,0 C 10,8 C 50 % 55 % 1016,7 hPa 0,0 l/m 12,1 km/h (2 Bft) O-SO 120 5 min
11.05.2018 13:35 19,8 C 19,0 C 10,8 C 50 % 55 % 1015,7 hPa 0,0 l/m 9,7 km/h (2 Bft) S-SO 155 5 min
11.05.2018 13:40 20,2 C 19,4 C 10,8 C 49 % 56 % 1015,7 hPa 0,0 l/m 12,1 km/h (2 Bft) S-SO 160 5 min
11.05.2018 13:45 20,3 C 19,4 C 10,8 C 48 % 55 % 1015,7 hPa 0,0 l/m 10,3 km/h (2 Bft) O-NO 60 5 min
11.05.2018 13:50 19,7 C 19,6 C 10,8 C 48 % 54 % 1015,7 hPa 0,0 l/m 13,3 km/h (3 Bft) S-SO 165 5 min
11.05.2018 13:55 20,1 C 19,6 C 10,8 C 46 % 54 % 1015,7 hPa 0,0 l/m 13,9 km/h (3 Bft) S-SO 155 5 min
11.05.2018 14:00 20,2 C 19,7 C 10,8 C 47 % 52 % 1015,7 hPa 0,0 l/m 8,5 km/h (2 Bft) W-SW 255 3 min
11.05.2018 14:05 19,9 C 19,8 C 10,8 C 47 % 53 % 1015,7 hPa 0,0 l/m 11,5 km/h (2 Bft) O-SO 120 7 min
11.05.2018 14:10 20,2 C 20,1 C 10,8 C 47 % 52 % 1015,7 hPa 0,0 l/m 12,7 km/h (3 Bft) O-SO 120 5 min
11.05.2018 14:15 20,5 C 20,2 C 10,8 C 45 % 53 % 1015,7 hPa 0,0 l/m 14,5 km/h (3 Bft) S-SO 155 5 min
11.05.2018 14:20 20,1 C 20,3 C 10,8 C 45 % 50 % 1015,7 hPa 0,0 l/m 16,9 km/h (3 Bft) O 95 6 min
11.05.2018 14:25 19,9 C 20,2 C 10,8 C 45 % 49 % 1015,7 hPa 0,0 l/m 16,9 km/h (3 Bft) O 100 2 min
11.05.2018 14:30 19,8 C 20,4 C 10,8 C 45 % 49 % 1015,7 hPa 0,0 l/m 12,7 km/h (3 Bft) N 5 7 min
11.05.2018 14:35 20,6 C 20,4 C 10,8 C 45 % 50 % 1015,7 hPa 0,0 l/m 8,5 km/h (2 Bft) S 190 5 min
11.05.2018 14:40 20,8 C 20,3 C 10,8 C 44 % 49 % 1015,7 hPa 0,0 l/m 12,1 km/h (2 Bft) SO 125 5 min
11.05.2018 14:45 21,3 C 20,3 C 10,8 C 43 % 48 % 1015,7 hPa 0,0 l/m 10,3 km/h (2 Bft) S-SO 150 3 min
11.05.2018 14:50 20,8 C 20,4 C 10,8 C 43 % 49 % 1015,7 hPa 0,0 l/m 7,9 km/h (2 Bft) SO 130 7 min
11.05.2018 14:55 21,3 C 20,6 C 10,8 C 40 % 46 % 1015,7 hPa 0,0 l/m 10,3 km/h (2 Bft) SO 125 3 min
11.05.2018 15:00 20,8 C 20,7 C 10,8 C 40 % 46 % 1015,7 hPa 0,0 l/m 12,1 km/h (2 Bft) SW 220 6 min
11.05.2018 15:05 20,9 C 21,0 C 10,8 C 42 % 47 % 1015,7 hPa 0,0 l/m 19,4 km/h (3 Bft) SO 135 4 min
11.05.2018 15:10 20,8 C 21,0 C 10,8 C 41 % 45 % 1015,7 hPa 0,0 l/m 15,7 km/h (3 Bft) W-SW 240 5 min
11.05.2018 15:15 20,7 C 21,1 C 10,8 C 40 % 44 % 1015,6 hPa 0,0 l/m 16,9 km/h (3 Bft) NO 40 4 min
11.05.2018 15:20 21,7 C 21,2 C 10,8 C 37 % 42 % 1015,6 hPa 0,0 l/m 9,7 km/h (2 Bft) NO 50 6 min
11.05.2018 15:25 21,5 C 21,2 C 10,8 C 38 % 42 % 1015,6 hPa 0,0 l/m 18,8 km/h (3 Bft) O-SO 110 5 min
11.05.2018 15:30 21,0 C 21,3 C 10,8 C 38 % 41 % 1015,6 hPa 0,0 l/m 14,5 km/h (3 Bft) N 0 5 min
11.05.2018 15:35 21,5 C 21,3 C 10,8 C 39 % 43 % 1014,6 hPa 0,0 l/m 10,9 km/h (2 Bft) N 0 4 min
11.05.2018 15:40 21,2 C 21,2 C 10,8 C 40 % 43 % 1014,6 hPa 0,0 l/m 12,1 km/h (2 Bft) O-SO 120 3 min
11.05.2018 15:45 21,5 C 21,4 C 10,8 C 42 % 45 % 1014,6 hPa 0,0 l/m 18,8 km/h (3 Bft) O 100 5 min
11.05.2018 15:50 21,9 C 21,3 C 10,8 C 39 % 42 % 1014,6 hPa 0,0 l/m 15,7 km/h (3 Bft) SO 130 5 min
11.05.2018 15:55 21,9 C 21,3 C 10,8 C 37 % 43 % 1014,6 hPa 0,0 l/m 13,3 km/h (3 Bft) O-SO 105 5 min
11.05.2018 16:00 21,6 C 21,4 C 10,8 C 38 % 41 % 1014,6 hPa 0,0 l/m 13,3 km/h (3 Bft) O-SO 120 4 min
11.05.2018 16:05 21,4 C 21,2 C 10,8 C 38 % 41 % 1014,6 hPa 0,0 l/m 14,5 km/h (3 Bft) SO 140 5 min
11.05.2018 16:10 21,9 C 21,2 C 10,8 C 38 % 43 % 1014,6 hPa 0,0 l/m 9,7 km/h (2 Bft) O 90 5 min
11.05.2018 16:15 21,4 C 21,0 C 10,8 C 38 % 42 % 1014,6 hPa 0,0 l/m 12,1 km/h (2 Bft) S-SO 155 5 min
11.05.2018 16:20 21,5 C 21,2 C 10,8 C 39 % 44 % 1014,6 hPa 0,0 l/m 13,9 km/h (3 Bft) SO 140 5 min
11.05.2018 16:25 21,6 C 21,2 C 10,8 C 39 % 42 % 1014,6 hPa 0,0 l/m 10,9 km/h (2 Bft) N-NO 30 5 min
11.05.2018 16:30 21,4 C 21,0 C 10,8 C 40 % 43 % 1014,6 hPa 0,0 l/m 13,3 km/h (3 Bft) O 85 5 min
11.05.2018 16:35 20,7 C 20,8 C 10,8 C 40 % 43 % 1014,6 hPa 0,0 l/m 11,5 km/h (2 Bft) N-NO 20 5 min
11.05.2018 16:40 21,1 C 20,7 C 10,8 C 40 % 44 % 1014,7 hPa 0,0 l/m 7,3 km/h (2 Bft) SO 145 6 min
11.05.2018 16:45 20,9 C 20,9 C 10,8 C 39 % 44 % 1014,6 hPa 0,0 l/m 13,3 km/h (3 Bft) SO 130 4 min
11.05.2018 16:50 21,2 C 20,9 C 10,8 C 38 % 42 % 1014,6 hPa 0,0 l/m 6,7 km/h (2 Bft) SW 225 6 min
11.05.2018 16:55 21,3 C 21,1 C 10,8 C 39 % 44 % 1014,6 hPa 0,0 l/m 10,3 km/h (2 Bft) SO 135 4 min
11.05.2018 17:00 22,0 C 21,0 C 10,8 C 38 % 42 % 1014,6 hPa 0,0 l/m 4,2 km/h (1 Bft) O-SO 115 5 min
11.05.2018 17:05 21,9 C 21,0 C 10,8 C 38 % 43 % 1014,6 hPa 0,0 l/m 18,2 km/h (3 Bft) SO 125 5 min
11.05.2018 17:10 21,9 C 21,1 C 10,8 C 38 % 42 % 1014,6 hPa 0,0 l/m 7,9 km/h (2 Bft) O-SO 115 5 min
11.05.2018 17:15 21,6 C 21,1 C 10,8 C 38 % 42 % 1014,6 hPa 0,0 l/m 15,7 km/h (3 Bft) S-SO 165 5 min
11.05.2018 17:20 21,2 C 20,9 C 10,8 C 38 % 42 % 1014,6 hPa 0,0 l/m 15,1 km/h (3 Bft) O-SO 115 5 min
11.05.2018 17:25 21,0 C 20,8 C 10,8 C 38 % 42 % 1014,6 hPa 0,0 l/m 7,9 km/h (2 Bft) SO 125 5 min
11.05.2018 17:30 21,0 C 20,8 C 10,8 C 38 % 42 % 1014,6 hPa 0,0 l/m 7,9 km/h (2 Bft) O-NO 70 4 min
11.05.2018 17:35 21,0 C 20,7 C 10,8 C 38 % 42 % 1014,7 hPa 0,0 l/m 9,7 km/h (2 Bft) O-SO 115 6 min
11.05.2018 17:40 20,8 C 20,6 C 10,8 C 39 % 42 % 1014,7 hPa 0,0 l/m 9,7 km/h (2 Bft) S 180 4 min
11.05.2018 17:45 20,7 C 20,6 C 10,8 C 40 % 43 % 1014,7 hPa 0,0 l/m 7,9 km/h (2 Bft) O 90 6 min
11.05.2018 17:50 20,8 C 20,6 C 10,8 C 39 % 42 % 1013,6 hPa 0,0 l/m 8,5 km/h (2 Bft) O-NO 75 5 min
11.05.2018 17:55 21,1 C 20,6 C 10,8 C 39 % 43 % 1013,6 hPa 0,0 l/m 5,4 km/h (2 Bft) S 190 5 min
11.05.2018 18:00 21,5 C 20,8 C 10,8 C 38 % 43 % 1013,6 hPa 0,0 l/m 11,5 km/h (2 Bft) S-SO 150 5 min
11.05.2018 18:05 21,8 C 20,8 C 10,8 C 38 % 42 % 1013,6 hPa 0,0 l/m 6,7 km/h (2 Bft) SO 135 5 min
11.05.2018 18:10 21,4 C 20,7 C 10,8 C 38 % 43 % 1013,6 hPa 0,0 l/m 7,3 km/h (2 Bft) O-SO 110 5 min
11.05.2018 18:15 21,3 C 20,6 C 10,8 C 39 % 43 % 1013,6 hPa 0,0 l/m 10,9 km/h (2 Bft) O-SO 115 0 min
11.05.2018 18:20 21,2 C 20,7 C 10,8 C 39 % 43 % 1013,6 hPa 0,0 l/m 3,6 km/h (1 Bft) S-SO 150 0 min
11.05.2018 18:25 21,0 C 20,6 C 10,8 C 39 % 44 % 1013,6 hPa 0,0 l/m 9,7 km/h (2 Bft) O-SO 115 7 min
11.05.2018 18:30 21,0 C 20,5 C 10,8 C 39 % 43 % 1013,6 hPa 0,0 l/m 7,9 km/h (2 Bft) SO 140 3 min
11.05.2018 18:35 21,0 C 20,6 C 10,8 C 38 % 43 % 1013,6 hPa 0,0 l/m 8,5 km/h (2 Bft) O-NO 70 1 min
11.05.2018 18:40 21,0 C 20,6 C 10,8 C 38 % 42 % 1013,6 hPa 0,0 l/m 15,7 km/h (3 Bft) O-SO 120 1 min
11.05.2018 18:45 20,8 C 20,6 C 10,8 C 38 % 42 % 1013,6 hPa 0,0 l/m 13,9 km/h (3 Bft) SO 135 1 min
11.05.2018 18:50 20,8 C 20,6 C 10,8 C 39 % 43 % 1013,6 hPa 0,0 l/m 9,7 km/h (2 Bft) NO 35 0 min
11.05.2018 18:55 20,6 C 20,5 C 10,8 C 40 % 44 % 1013,6 hPa 0,0 l/m 6,7 km/h (2 Bft) O 100 0 min
11.05.2018 19:00 20,5 C 20,3 C 10,8 C 40 % 44 % 1013,7 hPa 0,0 l/m 11,5 km/h (2 Bft) S-SO 160 0 min
11.05.2018 19:05 20,4 C 20,4 C 10,8 C 41 % 44 % 1013,7 hPa 0,0 l/m 11,5 km/h (2 Bft) O 95 0 min
11.05.2018 19:10 20,2 C 20,2 C 10,8 C 42 % 44 % 1013,7 hPa 0,0 l/m 10,3 km/h (2 Bft) O-NO 60 0 min
11.05.2018 19:15 20,1 C 20,2 C 10,8 C 43 % 46 % 1013,7 hPa 0,0 l/m 9,7 km/h (2 Bft) O-SO 105 0 min
11.05.2018 19:20 20,1 C 20,1 C 10,8 C 42 % 45 % 1012,7 hPa 0,0 l/m 10,9 km/h (2 Bft) O-NO 60 0 min
11.05.2018 19:25 20,1 C 20,1 C 10,8 C 42 % 45 % 1012,7 hPa 0,0 l/m 7,3 km/h (2 Bft) O-NO 70 0 min
11.05.2018 19:30 20,1 C 20,0 C 10,8 C 42 % 45 % 1012,7 hPa 0,0 l/m 12,7 km/h (3 Bft) O-SO 120 0 min
11.05.2018 19:35 20,1 C 20,0 C 10,8 C 42 % 46 % 1012,7 hPa 0,0 l/m 9,7 km/h (2 Bft) O 95 2 min
11.05.2018 19:40 20,0 C 20,0 C 10,8 C 43 % 47 % 1012,7 hPa 0,0 l/m 10,9 km/h (2 Bft) O 95 0 min
11.05.2018 19:45 20,0 C 19,9 C 10,8 C 43 % 47 % 1012,7 hPa 0,0 l/m 8,5 km/h (2 Bft) O-NO 75 0 min
11.05.2018 19:50 19,8 C 19,8 C 10,8 C 44 % 48 % 1013,7 hPa 0,0 l/m 7,9 km/h (2 Bft) O-NO 70 0 min
11.05.2018 19:55 19,8 C 19,8 C 10,8 C 45 % 49 % 1013,7 hPa 0,0 l/m 7,3 km/h (2 Bft) O-NO 70 0 min
11.05.2018 20:00 19,7 C 19,6 C 10,8 C 45 % 48 % 1013,7 hPa 0,0 l/m 10,3 km/h (2 Bft) S-SW 205 0 min
11.05.2018 20:05 19,5 C 19,6 C 10,8 C 45 % 48 % 1013,7 hPa 0,0 l/m 12,1 km/h (2 Bft) O-SO 105 0 min
11.05.2018 20:10 19,5 C 19,5 C 10,8 C 45 % 48 % 1013,7 hPa 0,0 l/m 11,5 km/h (2 Bft) O-NO 60 0 min
11.05.2018 20:15 19,3 C 19,5 C 10,8 C 46 % 49 % 1013,7 hPa 0,0 l/m 6,1 km/h (2 Bft) SO 145 0 min
11.05.2018 20:20 19,2 C 19,4 C 10,8 C 47 % 50 % 1012,7 hPa 0,0 l/m 10,3 km/h (2 Bft) O-SO 110 0 min
11.05.2018 20:25 19,1 C 19,3 C 10,8 C 48 % 51 % 1012,7 hPa 0,0 l/m 5,4 km/h (2 Bft) O-SO 120 0 min
11.05.2018 20:30 19,0 C 19,2 C 10,8 C 48 % 51 % 1012,7 hPa 0,0 l/m 10,3 km/h (2 Bft) NO 55 0 min
11.05.2018 20:35 18,9 C 19,1 C 10,8 C 49 % 51 % 1013,7 hPa 0,0 l/m 12,7 km/h (3 Bft) O-SO 110 0 min
11.05.2018 20:40 18,8 C 19,0 C 10,8 C 49 % 52 % 1013,7 hPa 0,0 l/m 7,9 km/h (2 Bft) O 90 0 min
11.05.2018 20:45 18,6 C 18,9 C 10,8 C 50 % 52 % 1013,7 hPa 0,0 l/m 12,1 km/h (2 Bft) O-SO 120 0 min
11.05.2018 20:50 18,5 C 18,7 C 10,8 C 50 % 53 % 1013,7 hPa 0,0 l/m 16,9 km/h (3 Bft) O 80 0 min
11.05.2018 20:55 18,4 C 18,6 C 10,8 C 50 % 54 % 1013,7 hPa 0,0 l/m 8,5 km/h (2 Bft) NO 35 0 min
11.05.2018 21:00 18,3 C 18,5 C 10,8 C 51 % 54 % 1013,7 hPa 0,0 l/m 11,5 km/h (2 Bft) O-SO 105 0 min
11.05.2018 21:05 18,1 C 18,4 C 10,8 C 52 % 55 % 1012,7 hPa 0,0 l/m 7,3 km/h (2 Bft) O 95 0 min
11.05.2018 21:10 18,1 C 18,2 C 10,8 C 52 % 55 % 1012,7 hPa 0,0 l/m 10,9 km/h (2 Bft) SO 135 0 min
11.05.2018 21:15 17,9 C 18,1 C 10,8 C 53 % 56 % 1012,7 hPa 0,0 l/m 4,8 km/h (1 Bft) SO 135 0 min
11.05.2018 21:20 17,8 C 17,9 C 10,8 C 53 % 57 % 1013,7 hPa 0,0 l/m 7,9 km/h (2 Bft) O-SO 115 0 min
11.05.2018 21:25 17,7 C 17,9 C 10,8 C 53 % 57 % 1013,7 hPa 0,0 l/m 9,7 km/h (2 Bft) SO 140 0 min
11.05.2018 21:30 17,7 C 17,8 C 10,8 C 53 % 57 % 1013,7 hPa 0,0 l/m 9,7 km/h (2 Bft) SO 135 0 min
11.05.2018 21:35 17,6 C 17,8 C 10,8 C 54 % 57 % 1013,7 hPa 0,0 l/m 15,1 km/h (3 Bft) NO 55 0 min
11.05.2018 21:40 17,6 C 17,7 C 10,8 C 54 % 57 % 1013,7 hPa 0,0 l/m 11,5 km/h (2 Bft) O-SO 105 0 min
11.05.2018 21:45 17,6 C 17,7 C 10,8 C 54 % 57 % 1013,7 hPa 0,0 l/m 20,0 km/h (4 Bft) S-SO 165 0 min
11.05.2018 21:50 17,5 C 17,6 C 10,8 C 54 % 57 % 1013,7 hPa 0,0 l/m 10,9 km/h (2 Bft) S-SO 150 0 min
11.05.2018 21:55 17,4 C 17,5 C 10,8 C 55 % 58 % 1013,7 hPa 0,0 l/m 7,9 km/h (2 Bft) NO 45 0 min
11.05.2018 22:00 17,4 C 17,5 C 10,8 C 55 % 58 % 1013,7 hPa 0,0 l/m 8,5 km/h (2 Bft) NO 45 0 min
11.05.2018 22:05 17,3 C 17,4 C 10,8 C 55 % 58 % 1013,7 hPa 0,0 l/m 10,9 km/h (2 Bft) NO 50 0 min
11.05.2018 22:10 17,2 C 17,4 C 10,8 C 55 % 58 % 1013,7 hPa 0,0 l/m 10,9 km/h (2 Bft) SO 145 0 min
11.05.2018 22:15 17,1 C 17,3 C 10,8 C 55 % 58 % 1013,7 hPa 0,0 l/m 7,3 km/h (2 Bft) NO 55 0 min
11.05.2018 22:20 17,0 C 17,3 C 10,8 C 56 % 58 % 1013,7 hPa 0,0 l/m 7,3 km/h (2 Bft) O-SO 115 0 min
11.05.2018 22:25 17,0 C 17,2 C 10,8 C 56 % 59 % 1013,7 hPa 0,0 l/m 4,2 km/h (1 Bft) S-SW 195 0 min
11.05.2018 22:30 16,9 C 17,1 C 10,8 C 56 % 59 % 1013,7 hPa 0,0 l/m 10,3 km/h (2 Bft) O-SO 120 0 min
11.05.2018 22:35 16,9 C 17,0 C 10,8 C 56 % 59 % 1013,7 hPa 0,0 l/m 12,1 km/h (2 Bft) NO 40 0 min
11.05.2018 22:40 16,8 C 17,0 C 10,8 C 56 % 59 % 1013,7 hPa 0,0 l/m 8,5 km/h (2 Bft) SO 130 0 min
11.05.2018 22:45 16,7 C 16,9 C 10,8 C 56 % 59 % 1013,7 hPa 0,0 l/m 6,7 km/h (2 Bft) N 355 0 min
11.05.2018 22:50 16,6 C 16,8 C 10,8 C 57 % 59 % 1013,7 hPa 0,0 l/m 7,3 km/h (2 Bft) NO 50 0 min
11.05.2018 22:55 16,6 C 16,8 C 10,8 C 57 % 59 % 1013,7 hPa 0,0 l/m 9,1 km/h (2 Bft) O-SO 120 0 min
11.05.2018 23:00 16,5 C 16,7 C 10,8 C 57 % 60 % 1013,7 hPa 0,0 l/m 6,1 km/h (2 Bft) NO 50 0 min
11.05.2018 23:05 16,4 C 16,7 C 10,8 C 57 % 60 % 1013,7 hPa 0,0 l/m 7,9 km/h (2 Bft) SO 145 0 min
11.05.2018 23:10 16,4 C 16,6 C 10,8 C 58 % 60 % 1013,7 hPa 0,0 l/m 3,0 km/h (1 Bft) O-NO 65 0 min
11.05.2018 23:15 16,3 C 16,5 C 10,8 C 58 % 61 % 1013,7 hPa 0,0 l/m 6,1 km/h (2 Bft) O-SO 110 0 min
11.05.2018 23:20 16,2 C 16,4 C 10,8 C 58 % 61 % 1013,7 hPa 0,0 l/m 3,6 km/h (1 Bft) NO 35 0 min
11.05.2018 23:25 16,1 C 16,4 C 10,8 C 59 % 61 % 1013,7 hPa 0,0 l/m 5,4 km/h (2 Bft) O-SO 115 0 min
11.05.2018 23:30 16,0 C 16,3 C 10,8 C 59 % 61 % 1013,7 hPa 0,0 l/m 6,1 km/h (2 Bft) O 100 0 min
11.05.2018 23:35 16,0 C 16,2 C 10,8 C 59 % 61 % 1012,7 hPa 0,0 l/m 2,4 km/h (1 Bft) S 170 0 min
11.05.2018 23:40 15,9 C 16,2 C 10,8 C 59 % 61 % 1012,7 hPa 0,0 l/m 4,8 km/h (1 Bft) O-NO 75 0 min
11.05.2018 23:45 15,9 C 16,2 C 10,8 C 59 % 61 % 1012,7 hPa 0,0 l/m 4,2 km/h (1 Bft) O-SO 115 0 min
11.05.2018 23:50 15,9 C 16,1 C 10,8 C 59 % 62 % 1013,7 hPa 0,0 l/m 9,7 km/h (2 Bft) O-SO 120 0 min
11.05.2018 23:55 15,9 C 16,0 C 10,8 C 60 % 62 % 1013,7 hPa 0,0 l/m 4,2 km/h (1 Bft) O-SO 105 0 min
_ Min-Zeit 06:00 06:10 00:00 15:20 15:30 19:20 - 01:20 - - -
Minimum _ 7,8 C 7,9 C 10,8 C 37 % 41 % 1012,7 hPa - 0,0 km/h (0 Bft) - - -
_ Max-Zeit 17:00 15:45 00:00 04:55 05:45 08:50 00:00 21:45 - - 11:00
Maximum _ 22,0 C 21,4 C 10,8 C 90 % 90 % 1019,8 hPa 0,0 l/m 20,0 km/h
S-SO (4 Bft)
- - 7 min
Durchschnitt _ 15,0 C 14,9 C 10,8 C 64 % 67 % 1016,4 hPa #0,0 l/m 7,2 km/h (2 Bft) O-SO - #10:24 h